Theta_e
315 315 315 315 315 316 317 317 317 317 317 317 317 317 318 317 318 318 318 318 318 318 318 319 321 321 313 307 310 337 349 349 327 313 307 309 308 307 301 302 305 302 305 308 311 311 315
314 315 314 314 315 315 316 316 316 316 317 316 316 316 316 317 317 318 317 318 318 317 318 318 320 320 313 298 326 337 328 314 312 307 307 313 312 310 305 304 303 306 307 309 311 312 317
314 314 313 314 314 315 315 315 316 316 316 316 315 315 316 316 316 317 317 317 316 317 318 318 320 319 310 301 325 321 312 309 309 307 308 312 315 307 305 303 308 310 306 309 310 312 312
313 313 313 313 314 314 315 315 315 315 315 315 315 315 315 315 315 316 316 315 316 321 318 319 320 314 302 317 323 317 309 306 307 306 310 314 315 309 304 308 308 303 302 301 308 312 313
313 313 313 313 314 314 314 314 314 314 314 314 314 314 314 315 315 315 314 314 318 319 320 320 312 311 301 320 312 312 309 308 308 306 307 316 310 304 308 301 297 298 295 299 305 311 312
313 312 313 313 313 313 313 313 313 313 313 313 313 313 314 314 314 314 313 314 320 319 319 322 322 300 304 313 314 311 309 313 311 309 308 307 304 300 300 298 288 293 297 299 300 306 308
312 312 312 313 313 313 313 313 312 312 312 313 313 313 313 313 313 313 309 303 301 301 305 301 302 302 308 315 317 310 313 313 310 306 298 301 297 294 298 301 302 301 299 298 301 305 305
313 312 312 312 312 312 312 312 312 312 312 311 311 312 312 312 312 312 304 302 302 302 296 303 305 310 313 313 306 311 316 309 307 301 301 298 294 300 302 302 301 300 298 297 300 303 306
312 312 311 312 311 312 312 312 311 311 311 311 311 312 311 311 311 305 301 303 305 300 295 300 304 303 305 308 305 308 313 309 304 301 299 296 299 304 303 301 299 296 294 295 296 299 303
311 311 311 311 311 311 312 311 311 311 310 311 311 311 310 309 301 302 304 307 302 302 289 294 299 303 304 305 303 313 313 309 305 302 301 300 304 304 302 301 300 293 300 300 298 295 290
309 310 310 310 310 310 310 311 311 310 310 310 310 310 309 309 300 297 305 303 302 301 283 300 299 306 302 304 306 307 312 308 302 302 301 298 302 301 302 303 302 300 302 299 299 294 292
309 311 310 310 310 310 310 311 311 310 310 310 310 308 308 302 297 301 303 302 300 288 283 297 301 298 298 299 302 308 307 309 308 302 301 301 306 304 303 306 305 307 299 296 293 291 287
309 310 311 310 309 310 310 311 310 309 309 309 308 308 305 305 294 301 301 298 288 283 295 295 294 296 294 295 298 304 303 301 299 293 292 298 300 303 306 301 302 298 292 287 287 286 286
308 309 309 309 309 310 310 310 309 309 309 308 306 306 304 304 301 300 297 293 281 290 291 298 296 295 293 296 297 301 301 298 300 298 294 292 292 300 305 301 299 295 294 288 283 284 288
308 310 309 308 310 310 309 309 309 308 308 307 305 296 297 300 305 299 294 284 284 289 297 296 295 292 292 295 297 296 298 298 301 301 295 292 294 304 305 303 303 296 292 294 288 287 287
308 309 308 309 309 309 309 309 309 308 307 306 296 296 298 303 303 298 291 286 287 295 297 295 290 292 289 293 292 292 295 298 300 303 300 296 292 299 304 303 303 299 300 292 289 284 283
308 309 308 309 308 308 308 308 308 307 306 305 295 296 301 302 298 295 287 287 293 298 297 293 291 291 291 292 291 290 292 298 302 301 302 297 294 295 300 297 297 295 293 291 290 289 286
308 308 308 308 308 308 308 307 307 306 305 299 291 293 302 299 291 287 288 292 297 295 295 294 295 294 293 293 290 291 292 296 301 300 298 297 292 291 295 300 303 298 296 293 290 288 289
307 307 308 307 306 307 307 307 306 305 305 296 291 293 303 299 285 286 290 293 295 294 295 294 294 296 295 292 290 293 296 301 301 298 296 298 292 288 291 294 298 298 296 293 291 291 291
306 306 307 306 306 306 307 307 306 305 305 295 294 293 296 296 292 292 293 295 296 302 298 298 295 295 293 291 292 292 294 299 301 300 321 305 290 291 288 292 296 299 301 297 294 290 289
305 305 305 305 304 305 306 306 306 305 305 296 294 291 292 289 292 292 293 296 296 296 301 298 296 297 297 289 289 291 294 296 300 308 302 298 294 291 293 296 301 303 303 299 297 296 296
305 304 304 304 304 304 305 305 306 305 303 294 292 291 291 290 291 288 292 292 296 299 298 296 298 302 300 291 291 292 294 291 294 299 300 300 293 298 295 303 304 303 305 304 304 301 299
305 304 303 304 304 305 304 304 305 304 298 291 291 292 292 290 289 288 290 294 298 299 301 303 303 300 298 297 305 306 301 297 294 298 298 301 295 293 291 299 300 294 302 304 305 306 305
304 303 304 305 305 305 304 304 304 304 299 289 289 290 289 285 290 291 295 296 297 297 296 302 303 300 304 308 305 303 298 297 296 298 300 300 296 293 291 293 287 296 305 308 309 314 313
303 303 304 304 304 304 303 304 304 304 304 291 290 290 288 285 290 291 293 293 295 295 296 301 305 306 305 301 295 293 292 292 297 299 298 300 300 296 292 290 296 302 308 311 305 305 313
304 304 303 303 304 303 303 303 303 303 304 292 290 290 290 286 285 293 290 292 290 289 294 299 304 303 304 294 293 288 287 289 291 293 299 300 300 299 295 291 290 299 313 321 317 300 314
303 303 302 303 304 303 302 302 303 303 303 292 290 289 289 285 288 290 288 289 291 290 290 294 296 300 301 291 289 289 289 294 291 290 290 290 292 292 295 294 298 308 318 319 299 301 317
302 302 302 303 303 302 303 302 302 302 302 294 290 290 288 284 285 291 293 290 290 291 290 292 295 297 297 294 292 289 289 291 293 297 294 291 290 290 293 292 292 316 316 305 308 316 318
302 302 302 303 303 304 303 303 303 303 302 297 287 292 291 286 286 289 292 294 294 294 291 289 294 295 299 294 293 293 294 295 294 293 301 296 297 293 295 296 309 319 319 321 321 318 318
Wind_Speed
15 16 16 16 16 17 17 17 17 17 17 17 17 17 17 17 17 16 16 15 14 13 11 8 7 5 1 2 6 4 11 10 6 4 2 3 2 1 1 2 4 2 4 5 9 7 7
16 16 16 16 16 17 18 18 18 18 18 18 18 18 18 18 19 18 17 17 15 14 10 8 6 3 2 2 1 6 10 7 6 4 4 3 3 3 3 1 2 3 6 8 9 5 1
16 17 16 16 17 18 18 19 19 19 19 19 20 20 20 20 20 20 18 19 19 15 9 6 4 3 1 7 4 6 7 5 4 4 4 3 1 2 1 5 1 4 7 7 5 4 2
17 17 17 17 17 18 19 19 19 20 20 20 20 21 21 21 20 21 19 18 18 11 4 5 3 2 5 3 6 6 2 3 2 2 1 2 0 1 1 2 7 4 3 6 5 5 3
16 17 17 17 18 18 19 19 20 21 21 21 21 21 22 21 21 21 19 19 8 4 5 5 2 1 6 1 3 5 4 5 5 1 2 3 2 2 5 4 6 8 2 2 9 4 1
16 16 18 17 18 18 19 19 20 21 21 21 21 22 22 22 22 22 22 4 2 2 3 4 3 2 1 3 3 5 4 5 3 3 2 3 6 3 4 5 4 2 0 3 5 6 1
17 17 18 18 18 19 19 20 20 21 22 22 21 23 23 23 23 21 10 2 7 4 3 4 2 2 4 6 4 2 4 5 4 6 3 3 4 6 8 5 2 1 2 3 6 7 2
16 17 18 18 18 19 20 20 21 21 22 23 23 23 24 24 23 19 2 7 5 4 10 7 7 6 4 2 3 3 7 5 4 4 3 5 5 9 3 3 4 2 2 6 8 2 2
17 17 18 18 19 19 20 21 21 22 22 23 22 23 24 25 27 4 3 3 2 6 2 9 5 5 6 9 7 7 10 5 5 5 5 6 1 7 4 4 4 3 4 4 6 5 2
16 17 18 19 19 20 20 21 22 22 22 22 21 22 22 29 5 4 3 6 5 5 5 8 4 6 4 8 3 7 7 7 3 10 7 5 4 4 1 3 6 2 6 3 5 1 3
17 16 17 18 20 20 21 21 21 22 22 22 21 21 20 11 4 1 4 9 5 3 3 1 2 1 3 8 6 1 5 4 8 7 7 7 2 3 2 4 6 7 2 3 2 2 3
17 17 17 18 19 20 21 21 22 22 22 23 22 20 17 1 2 6 7 10 4 6 7 4 2 2 4 2 2 4 4 5 4 5 0 6 2 3 6 3 6 5 3 8 5 3 3
17 18 16 18 20 20 21 21 22 24 25 25 25 21 8 1 3 5 6 3 6 4 5 5 3 4 3 3 2 3 6 6 6 4 2 5 5 5 6 4 1 4 6 4 5 6 6
17 18 18 19 20 21 20 22 23 24 25 27 28 20 4 4 3 5 2 6 4 2 5 5 4 3 2 4 5 3 7 5 2 5 3 2 9 3 3 8 7 5 8 7 5 4 5
17 18 19 19 19 19 22 23 25 26 27 28 21 3 1 4 6 2 6 3 8 6 3 6 5 6 6 4 3 3 7 7 8 9 9 5 6 4 3 4 7 4 3 4 9 3 2
16 17 19 18 20 21 22 24 26 27 28 27 3 3 3 2 6 4 6 5 4 4 4 4 3 2 4 5 3 3 6 4 6 10 5 5 4 4 4 2 2 5 6 4 3 4 3
16 17 18 19 20 22 23 24 26 28 30 20 2 3 5 2 2 6 4 7 4 5 5 4 1 3 2 3 1 2 3 2 3 4 8 7 6 5 4 3 7 2 2 6 5 4 7
16 17 16 18 20 22 23 25 26 27 30 6 2 4 4 2 5 1 4 5 3 2 3 3 0 2 1 3 3 2 4 4 2 2 7 6 5 4 11 5 1 3 5 7 7 4 2
16 18 16 18 21 22 23 24 25 27 25 3 3 2 3 4 4 1 4 3 2 1 1 2 2 1 2 2 4 3 2 1 3 1 5 7 2 3 10 7 1 4 4 5 6 4 6
15 16 17 18 20 22 22 23 25 27 25 2 2 2 4 5 0 2 2 1 1 2 3 3 3 2 2 3 3 4 3 4 8 3 5 6 3 8 9 10 3 4 4 5 7 5 5
16 16 16 17 19 20 22 23 24 28 24 2 4 0 1 1 3 3 2 5 2 5 5 6 2 5 2 2 3 4 3 5 5 3 1 4 5 4 5 4 4 3 5 7 4 6 5
15 16 17 17 18 18 20 22 23 27 19 5 3 2 4 0 2 0 2 2 2 3 1 2 3 6 3 5 0 4 5 3 5 6 4 2 1 2 3 2 8 5 6 7 5 4 3
14 16 16 16 16 18 19 20 20 23 13 4 3 2 2 2 2 2 1 0 1 2 3 4 3 2 3 3 5 12 8 9 6 5 2 4 3 4 3 3 1 2 6 6 4 5 7
13 14 14 16 16 18 18 18 19 18 11 2 1 1 3 3 1 1 2 3 2 3 3 5 3 2 3 8 10 3 5 9 7 9 3 3 3 2 3 3 3 8 3 4 4 1 2
11 12 14 16 16 16 16 17 17 16 17 3 1 2 2 1 2 4 1 3 6 4 4 4 3 1 6 5 3 3 4 2 5 7 7 5 5 3 5 4 5 1 3 2 2 3 2
11 12 13 14 14 15 15 15 15 16 14 3 1 1 2 3 4 2 1 2 1 3 5 5 4 4 5 2 2 4 5 5 4 2 5 4 2 5 3 4 7 7 1 4 2 4 3
10 10 11 12 12 13 13 13 14 14 12 4 2 2 3 1 4 3 3 3 1 2 2 4 7 8 3 3 1 3 4 2 2 5 4 1 3 6 3 3 6 3 8 5 5 8 1
10 10 11 12 11 12 13 12 12 12 12 4 3 3 3 1 6 4 3 3 1 2 2 4 3 3 4 4 1 2 1 1 2 1 1 5 6 3 2 3 6 4 5 4 3 2 5
10 9 11 11 11 11 11 11 11 11 10 5 2 2 1 3 6 3 6 6 5 2 3 2 3 2 2 3 0 0 2 2 1 2 2 1 4 4 7 6 3 4 5 7 4 2 1
Wind_Direction
28 25 24 22 18 15 13 12 8 5 4 360 357 355 350 346 340 337 333 327 323 317 310 300 299 310 276 355 258 27 124 114 111 134 180 127 131 195 347 311 344 192 286 294 283 284 228
29 28 25 22 20 15 13 10 7 3 360 357 355 351 348 344 339 334 332 325 320 315 301 283 292 315 221 294 79 133 118 121 135 143 168 153 211 206 298 297 107 268 273 281 293 314 10
29 27 25 20 18 15 13 10 7 1 359 355 354 349 346 343 337 332 329 325 322 314 289 253 265 240 199 229 129 136 121 160 168 157 151 227 242 10 328 325 331 305 327 345 350 357 286
27 25 22 17 17 14 12 9 5 0 357 355 351 348 343 340 333 327 325 324 323 311 213 199 226 209 240 338 138 135 159 113 132 234 3 318 223 224 206 306 8 27 53 12 315 339 14
24 22 21 15 15 12 11 9 4 359 355 353 349 345 341 336 330 324 324 322 322 83 138 169 225 137 280 255 164 186 157 150 135 165 309 294 31 62 14 67 11 11 258 332 317 353 289
24 19 17 13 13 12 9 8 3 358 353 350 348 342 339 334 329 325 325 318 141 106 215 208 252 37 268 232 182 154 185 155 130 114 28 71 49 64 34 73 218 191 313 326 271 293 311
21 22 17 12 12 11 7 5 2 356 352 349 346 340 336 332 328 328 345 28 11 347 9 223 224 261 269 298 124 165 169 137 95 59 140 17 81 215 219 181 145 13 231 256 249 262 275
19 17 15 11 10 7 5 3 360 355 351 347 345 339 335 331 323 317 78 86 117 230 310 246 242 256 261 78 346 147 134 128 127 167 115 24 246 223 173 171 212 229 318 283 287 304 136
15 13 12 12 9 6 2 358 356 352 348 345 343 339 334 328 321 343 350 107 56 132 234 294 210 196 197 142 203 219 144 137 134 144 181 165 231 118 162 199 185 222 189 245 221 332 37
11 10 8 8 5 3 360 356 352 347 345 342 340 338 336 328 44 329 295 322 322 183 39 277 268 278 139 154 229 183 170 138 155 188 160 225 249 224 179 249 156 279 201 231 271 51 251
9 9 6 3 359 356 354 350 348 345 342 339 336 338 334 336 268 291 318 323 328 73 355 267 227 134 160 164 161 207 200 73 163 172 118 247 205 148 164 214 175 233 122 216 257 137 78
9 5 9 2 357 353 349 345 344 342 340 335 332 331 329 199 286 254 329 316 50 42 255 356 96 144 121 277 151 84 119 70 144 136 314 233 241 206 211 212 186 279 98 42 49 77 40
8 359 8 3 358 353 348 345 344 341 338 334 328 321 304 266 239 342 321 37 51 161 317 328 351 8 157 192 205 116 147 161 165 110 311 316 242 229 184 250 27 93 63 347 3 16 210
3 360 359 356 354 350 349 346 344 340 338 333 327 318 210 216 312 343 36 56 173 245 259 305 353 313 169 151 201 111 118 174 224 92 109 145 325 195 161 189 175 172 149 153 196 199 246
0 355 1 357 357 356 351 347 344 341 339 335 325 336 319 269 201 320 78 104 204 205 300 337 323 63 355 10 117 119 178 195 199 163 170 158 269 288 215 184 144 173 182 175 106 3 53
358 6 360 358 357 353 351 348 346 342 339 337 332 349 288 5 146 73 78 223 233 224 323 10 59 38 23 335 80 144 171 217 214 183 142 205 295 248 283 59 45 163 155 88 7 140 212
356 3 359 359 355 352 350 349 347 343 340 334 25 57 322 49 38 52 164 221 254 250 56 46 29 327 307 321 14 187 207 319 171 162 174 149 150 250 36 226 193 118 177 57 119 116 159
1 355 358 2 357 353 350 349 349 348 343 35 350 54 314 23 63 27 157 197 253 291 360 351 115 247 265 8 329 308 234 211 11 167 143 205 154 219 220 258 228 202 196 141 126 229 105
358 356 2 2 357 352 350 349 350 351 355 336 51 289 316 71 113 296 291 277 266 335 297 37 314 181 14 18 346 247 264 268 44 343 180 177 229 0 343 350 291 198 162 114 111 84 184
356 354 355 356 355 351 352 351 352 351 351 66 54 55 342 47 88 138 19 306 298 253 245 212 250 67 359 329 214 292 307 307 345 336 359 107 145 171 186 203 170 154 168 162 134 114 171
356 355 355 356 353 355 355 355 355 352 351 63 22 62 206 267 356 41 10 356 358 9 348 25 82 68 14 280 308 232 255 315 327 17 65 134 203 196 248 224 192 221 188 170 145 157 146
354 358 358 359 360 0 360 360 359 359 351 71 66 40 358 293 308 139 11 24 71 330 303 342 55 316 275 213 143 289 8 245 240 319 9 316 209 161 341 305 182 194 228 196 174 137 293
354 357 354 358 356 358 4 2 8 11 14 51 335 347 105 332 4 97 198 258 49 318 256 238 317 296 279 194 277 259 227 260 259 291 271 354 115 85 258 339 88 4 200 210 194 164 152
355 355 353 347 4 3 1 5 7 16 44 141 326 40 58 288 60 177 347 344 283 320 283 301 288 226 275 321 282 227 233 242 235 261 177 151 90 84 185 21 190 239 304 245 230 161 223
344 351 348 358 356 354 357 6 7 14 16 75 344 66 75 291 256 293 237 271 313 309 231 257 283 349 314 312 11 22 335 316 241 226 207 172 127 111 148 182 276 279 45 70 91 293 16
326 340 348 349 353 357 354 360 5 8 14 69 355 344 88 111 248 354 301 305 271 321 328 275 315 323 15 78 61 158 212 217 249 197 80 75 79 124 137 160 196 237 316 29 179 295 354
337 340 343 338 350 353 349 354 359 6 16 76 309 17 95 140 265 191 217 213 155 121 239 302 332 341 5 42 93 173 242 237 231 181 176 69 15 161 159 211 283 308 308 299 110 234 161
329 334 334 340 355 349 349 349 353 358 5 68 273 351 96 183 274 222 258 227 360 103 149 286 10 340 3 68 123 267 202 294 19 338 184 175 144 188 83 111 265 20 300 192 235 81 140
318 329 329 341 337 335 341 345 348 349 355 42 344 333 52 164 248 274 256 259 210 196 140 312 197 247 219 85 56 207 338 2 146 235 353 259 180 193 178 215 284 289 272 307 295 302 176